sat.trackr.live / text

‹ back to catalog

ZHONGXING-2E

NORAD 49062 · 2021-071A

PAYLOAD ACTIVE UNKNOWN

§ Identity

Operator
Country
PRC
Launch date
2021-08-05
Launch site
XICLF
Launch vehicle
Mass (kg)
RCS (m²)

Purposes: comms

External: N2YO · Heavens-Above · Gunter

§ Orbital elements

Epoch: 2026-05-24T23:04:39.070848Z

Period
1,436.16 min
Inclination
0.0106°
Eccentricity
0.0002038
Mean motion
1.00267123 rev/d
Perigee alt
35,779.3 km
Apogee alt
35,796.5 km
Semi-major
42,166.0 km
B*
0.0000e+0
RAAN
320.3052°
Arg perigee
172.0606°
Mean anomaly
194.3947°
Rev number
1,780

§ Raw data

ZHONGXING-2E1 49062U 21071A   26144.96156332  .00000000  00000+0  00000+0 0  99922 49062   0.0106 320.3052 0002038 172.0606 194.3947  1.00267123 17805

JSON: /api/v1/satellites/49062 · /tle

For live sub-satellite position, see the globe view (requires WebGL).

§ Visibility from observer

Set your observer location to see the next 7 days of passes ≥ 10°. The values pass through the URL so the page stays shareable.

No JS? Fill the form by hand. The geolocation button needs JavaScript.